BEE32T EGAC-EGLC

Flight info

Callsign BEE32T
Flight time 1h 0m
Altitude 31000
Route DCT DUFFY L10 RINGA Q39 ETIGA DCT INKOB Q39 NOMSU UQ4 LISTO LISTO1C
Aircraft B463/M-SDFGIRWY/LB1

Departure

Time 2026-05-06 15:39
Airport George Best Belfast City Airport (EGAC)

Arrival

Time 2026-05-06 16:40
Airport London City Airport (EGLC)
Time Latitude Longitude Altitude Speed Heading
2026-05-06 15:16 54.61537 -5.87093 24 ft 0 kts 126°
2026-05-06 15:16 54.61539 -5.87099 24 ft 0 kts 126°
2026-05-06 15:19 54.61539 -5.87100 24 ft 0 kts 126°
2026-05-06 15:20 54.61540 -5.87100 24 ft 0 kts 126°
2026-05-06 15:26 54.61540 -5.87101 23 ft 0 kts 126°
2026-05-06 15:28 54.61542 -5.87106 23 ft 3 kts 123°
2026-05-06 15:28 54.61555 -5.87141 27 ft 4 kts 114°
2026-05-06 15:29 54.61557 -5.87183 27 ft 4 kts 69°
2026-05-06 15:29 54.61546 -5.87206 27 ft 1 kts 34°
2026-05-06 15:29 54.61544 -5.87209 26 ft 0 kts 34°
2026-05-06 15:30 54.61543 -5.87209 26 ft 0 kts 34°
2026-05-06 15:32 54.61549 -5.87202 23 ft 2 kts 34°
2026-05-06 15:32 54.61575 -5.87171 25 ft 7 kts 34°
2026-05-06 15:32 54.61610 -5.87129 23 ft 6 kts 34°
2026-05-06 15:32 54.61647 -5.87085 23 ft 7 kts 34°
2026-05-06 15:33 54.61687 -5.87038 23 ft 7 kts 34°
2026-05-06 15:33 54.61726 -5.86993 24 ft 6 kts 25°
2026-05-06 15:33 54.61764 -5.87004 25 ft 5 kts 321°
2026-05-06 15:33 54.61767 -5.87011 24 ft 0 kts 308°
2026-05-06 15:35 54.61777 -5.87036 23 ft 7 kts 304°
2026-05-06 15:35 54.61806 -5.87108 24 ft 7 kts 304°
2026-05-06 15:35 54.61834 -5.87167 24 ft 6 kts 323°
2026-05-06 15:36 54.61880 -5.87168 24 ft 10 kts 30°
2026-05-06 15:36 54.61964 -5.87067 22 ft 19 kts 34°
2026-05-06 15:36 54.62093 -5.86914 22 ft 23 kts 34°
2026-05-06 15:36 54.62220 -5.86763 24 ft 21 kts 34°
2026-05-06 15:37 54.62333 -5.86628 24 ft 18 kts 34°
2026-05-06 15:37 54.62429 -5.86544 24 ft 12 kts 357°
2026-05-06 15:37 54.62478 -5.86529 23 ft 10 kts 44°
2026-05-06 15:37 54.62459 -5.86457 24 ft 7 kts 208°
2026-05-06 15:38 54.62428 -5.86505 24 ft 5 kts 225°
2026-05-06 15:38 54.62410 -5.86535 25 ft 2 kts 216°
2026-05-06 15:38 54.62407 -5.86538 25 ft 0 kts 216°
2026-05-06 15:39 54.62406 -5.86539 25 ft 4 kts 215°
2026-05-06 15:39 54.62296 -5.86670 24 ft 62 kts 214°
2026-05-06 15:39 54.61691 -5.87382 118 ft 135 kts 210°
2026-05-06 15:39 54.60907 -5.88342 918 ft 142 kts 211°
2026-05-06 15:40 54.60058 -5.89200 1821 ft 141 kts 192°
2026-05-06 15:40 54.59089 -5.89161 2681 ft 142 kts 169°
2026-05-06 15:40 54.58088 -5.88781 3369 ft 160 kts 165°
2026-05-06 15:40 54.56988 -5.88263 4116 ft 157 kts 168°
2026-05-06 15:41 54.55949 -5.87795 5082 ft 153 kts 166°
2026-05-06 15:41 54.54937 -5.87206 5835 ft 158 kts 148°
2026-05-06 15:41 54.54248 -5.85770 6296 ft 161 kts 129°
2026-05-06 15:41 54.53558 -5.84194 6759 ft 169 kts 129°
2026-05-06 15:42 54.52835 -5.82564 7254 ft 173 kts 131°
2026-05-06 15:42 54.52094 -5.80897 7772 ft 177 kts 131°
2026-05-06 15:42 54.51316 -5.79218 8251 ft 184 kts 134°
2026-05-06 15:42 54.50494 -5.77483 8690 ft 189 kts 134°
2026-05-06 15:43 54.49637 -5.75706 9018 ft 207 kts 135°
2026-05-06 15:43 54.48599 -5.73664 9031 ft 245 kts 133°
2026-05-06 15:43 54.47402 -5.71357 9395 ft 270 kts 133°
2026-05-06 15:43 54.46129 -5.68899 9890 ft 287 kts 134°
2026-05-06 15:44 54.44768 -5.66268 10421 ft 301 kts 134°
2026-05-06 15:44 54.43349 -5.63555 11009 ft 310 kts 134°
2026-05-06 15:44 54.41896 -5.60768 11622 ft 317 kts 134°
2026-05-06 15:44 54.40412 -5.57935 12267 ft 321 kts 134°
2026-05-06 15:45 54.38989 -5.54932 12935 ft 326 kts 129°
2026-05-06 15:45 54.37654 -5.51762 13609 ft 329 kts 127°
2026-05-06 15:45 54.36343 -5.48529 14226 ft 331 kts 126°
2026-05-06 15:45 54.35047 -5.45245 14836 ft 333 kts 126°
2026-05-06 15:46 54.33761 -5.42010 15440 ft 334 kts 126°
2026-05-06 15:46 54.32450 -5.38724 16056 ft 334 kts 126°
2026-05-06 15:46 54.31137 -5.35435 16675 ft 335 kts 126°
2026-05-06 15:46 54.29805 -5.32150 17219 ft 338 kts 127°
2026-05-06 15:47 54.28440 -5.28838 17680 ft 342 kts 127°
2026-05-06 15:47 54.27033 -5.25529 18155 ft 345 kts 129°
2026-05-06 15:47 54.25528 -5.22319 18595 ft 347 kts 131°
2026-05-06 15:47 54.23982 -5.19144 19020 ft 348 kts 132°
2026-05-06 15:48 54.22441 -5.16011 19439 ft 349 kts 131°
2026-05-06 15:48 54.20884 -5.12821 19867 ft 350 kts 131°
2026-05-06 15:48 54.19323 -5.09633 20298 ft 350 kts 131°
2026-05-06 15:48 54.17764 -5.06433 20726 ft 350 kts 130°
2026-05-06 15:49 54.16215 -5.03223 21175 ft 350 kts 130°
2026-05-06 15:49 54.14664 -5.00015 21580 ft 350 kts 130°
2026-05-06 15:49 54.13109 -4.96816 21989 ft 350 kts 130°
2026-05-06 15:49 54.11548 -4.93627 22408 ft 350 kts 130°
2026-05-06 15:50 54.09999 -4.90425 22780 ft 352 kts 130°
2026-05-06 15:50 54.08448 -4.87210 22910 ft 360 kts 130°
2026-05-06 15:50 54.06841 -4.83882 23100 ft 367 kts 130°
2026-05-06 15:50 54.05203 -4.80499 23308 ft 374 kts 130°
2026-05-06 15:51 54.03554 -4.77035 23526 ft 379 kts 128°
2026-05-06 15:51 54.01927 -4.73468 23741 ft 384 kts 128°
2026-05-06 15:51 54.00302 -4.69817 23955 ft 389 kts 127°
2026-05-06 15:51 53.98670 -4.66122 24189 ft 393 kts 127°
2026-05-06 15:52 53.97022 -4.62391 24413 ft 396 kts 127°
2026-05-06 15:52 53.95383 -4.58682 24640 ft 400 kts 127°
2026-05-06 15:52 53.93707 -4.54899 24877 ft 403 kts 127°
2026-05-06 15:52 53.92010 -4.51088 25121 ft 406 kts 127°
2026-05-06 15:53 53.90283 -4.47286 25355 ft 408 kts 128°
2026-05-06 15:53 53.88544 -4.43469 25621 ft 410 kts 127°
2026-05-06 15:53 53.86828 -4.39592 25883 ft 412 kts 126°
2026-05-06 15:53 53.85159 -4.35633 26145 ft 414 kts 125°
2026-05-06 15:54 53.83510 -4.31626 26411 ft 415 kts 124°
2026-05-06 15:54 53.81861 -4.27595 26684 ft 417 kts 124°
2026-05-06 15:54 53.80232 -4.23608 26952 ft 418 kts 124°
2026-05-06 15:54 53.78575 -4.19556 27228 ft 419 kts 124°
2026-05-06 15:55 53.76916 -4.15505 27505 ft 419 kts 124°
2026-05-06 15:55 53.75266 -4.11441 27779 ft 420 kts 124°
2026-05-06 15:55 53.73613 -4.07369 28050 ft 420 kts 124°
2026-05-06 15:55 53.71948 -4.03312 28314 ft 420 kts 125°
2026-05-06 15:56 53.70263 -3.99280 28585 ft 420 kts 125°
2026-05-06 15:56 53.68589 -3.95248 28847 ft 419 kts 124°
2026-05-06 15:56 53.66952 -3.91277 29085 ft 417 kts 125°
2026-05-06 15:56 53.65285 -3.87278 29337 ft 416 kts 125°
2026-05-06 15:57 53.63611 -3.83299 29579 ft 415 kts 125°
2026-05-06 15:57 53.61941 -3.79341 29817 ft 415 kts 125°
2026-05-06 15:57 53.60287 -3.75366 30047 ft 414 kts 124°
2026-05-06 15:57 53.58642 -3.71393 30242 ft 413 kts 125°
2026-05-06 15:58 53.56986 -3.67456 30434 ft 413 kts 125°
2026-05-06 15:58 53.55319 -3.63525 30602 ft 412 kts 125°
2026-05-06 15:58 53.53672 -3.59583 30783 ft 412 kts 126°
2026-05-06 15:58 53.52022 -3.55634 30924 ft 413 kts 126°
2026-05-06 15:59 53.48719 -3.47760 30999 ft 416 kts 124°
2026-05-06 15:59 53.45819 -3.39366 31015 ft 417 kts 116°
2026-05-06 16:00 53.43449 -3.30490 31016 ft 415 kts 112°
2026-05-06 16:00 53.41255 -3.21611 31015 ft 410 kts 112°
2026-05-06 16:01 53.39079 -3.12852 31015 ft 404 kts 111°
2026-05-06 16:01 53.37098 -3.04176 31022 ft 399 kts 111°
2026-05-06 16:02 53.35153 -2.95502 31018 ft 396 kts 111°
2026-05-06 16:02 53.33215 -2.86906 31021 ft 394 kts 111°
2026-05-06 16:03 53.31264 -2.78277 31021 ft 400 kts 111°
2026-05-06 16:03 53.29135 -2.69694 31030 ft 405 kts 115°
2026-05-06 16:04 53.26670 -2.61160 31033 ft 411 kts 117°
2026-05-06 16:04 53.24116 -2.52566 31035 ft 415 kts 117°
2026-05-06 16:05 53.21547 -2.44027 31018 ft 408 kts 118°
2026-05-06 16:05 53.19029 -2.35638 31015 ft 401 kts 118°
2026-05-06 16:06 53.16539 -2.27396 31013 ft 394 kts 121°
2026-05-06 16:06 53.13533 -2.19915 31024 ft 387 kts 128°
2026-05-06 16:07 53.10370 -2.12590 31038 ft 392 kts 127°
2026-05-06 16:07 53.07225 -2.05107 31040 ft 397 kts 127°
2026-05-06 16:08 53.04095 -1.97476 31048 ft 402 kts 127°
2026-05-06 16:08 53.00958 -1.89795 31048 ft 407 kts 127°
2026-05-06 16:09 52.97718 -1.82095 31035 ft 401 kts 129°
2026-05-06 16:09 52.94281 -1.75059 31023 ft 384 kts 133°
2026-05-06 16:10 52.90879 -1.68364 31021 ft 382 kts 133°
2026-05-06 16:10 52.87382 -1.61557 31032 ft 393 kts 134°
2026-05-06 16:11 52.83792 -1.54616 31030 ft 399 kts 134°
2026-05-06 16:11 52.80214 -1.47597 31040 ft 405 kts 129°
2026-05-06 16:12 52.77120 -1.39707 31025 ft 412 kts 124°
2026-05-06 16:12 52.74070 -1.31654 31015 ft 412 kts 125°
2026-05-06 16:13 52.70958 -1.23774 31004 ft 407 kts 126°
2026-05-06 16:13 52.67825 -1.16054 30999 ft 403 kts 127°
2026-05-06 16:14 52.64737 -1.08492 31000 ft 398 kts 127°
2026-05-06 16:14 52.61664 -1.00979 31023 ft 394 kts 127°
2026-05-06 16:15 52.58623 -0.93552 31010 ft 389 kts 127°
2026-05-06 16:15 52.55604 -0.86190 31014 ft 381 kts 127°
2026-05-06 16:16 52.52709 -0.79116 31004 ft 371 kts 127°
2026-05-06 16:16 52.49800 -0.72081 31003 ft 379 kts 127°
2026-05-06 16:17 52.46803 -0.64876 31014 ft 386 kts 127°
2026-05-06 16:17 52.43735 -0.57530 31020 ft 394 kts 127°
2026-05-06 16:18 52.40601 -0.50054 31020 ft 402 kts 127°
2026-05-06 16:18 52.37477 -0.42610 30585 ft 387 kts 127°
2026-05-06 16:19 52.35970 -0.39016 30127 ft 381 kts 127°
2026-05-06 16:19 52.34496 -0.35503 29543 ft 378 kts 127°
2026-05-06 16:19 52.33011 -0.31972 28957 ft 378 kts 127°
2026-05-06 16:19 52.31521 -0.28440 28394 ft 377 kts 127°
2026-05-06 16:20 52.30050 -0.24902 27857 ft 376 kts 126°
2026-05-06 16:20 52.28580 -0.21379 27337 ft 374 kts 127°
2026-05-06 16:20 52.27111 -0.17902 26830 ft 371 kts 127°
2026-05-06 16:20 52.25657 -0.14432 26325 ft 369 kts 126°
2026-05-06 16:21 52.24217 -0.10989 25851 ft 366 kts 126°
2026-05-06 16:21 52.22775 -0.07592 25371 ft 363 kts 127°
2026-05-06 16:21 52.21314 -0.04187 24905 ft 370 kts 127°
2026-05-06 16:21 52.19857 -0.00754 24469 ft 377 kts 126°
2026-05-06 16:22 52.18364 0.02768 24015 ft 377 kts 127°
2026-05-06 16:22 52.16875 0.06240 23565 ft 370 kts 127°
2026-05-06 16:22 52.15409 0.09642 23035 ft 364 kts 127°
2026-05-06 16:22 52.14137 0.13171 22516 ft 360 kts 114°
2026-05-06 16:23 52.13339 0.17007 21993 ft 357 kts 106°
2026-05-06 16:23 52.12770 0.20912 21497 ft 353 kts 102°
2026-05-06 16:23 52.12339 0.24819 21000 ft 349 kts 99°
2026-05-06 16:23 52.11993 0.28661 20513 ft 346 kts 98°
2026-05-06 16:24 52.11673 0.32519 20065 ft 342 kts 98°
2026-05-06 16:24 52.11366 0.36312 19752 ft 335 kts 97°
2026-05-06 16:24 52.11069 0.40049 19433 ft 333 kts 97°
2026-05-06 16:24 52.10760 0.43881 19152 ft 350 kts 97°
2026-05-06 16:25 52.10439 0.47864 18910 ft 359 kts 97°
2026-05-06 16:25 52.10083 0.51870 18685 ft 354 kts 99°
2026-05-06 16:25 52.09681 0.55751 18425 ft 344 kts 100°
2026-05-06 16:25 52.09268 0.59543 18125 ft 337 kts 100°
2026-05-06 16:26 52.08854 0.63270 17798 ft 333 kts 100°
2026-05-06 16:26 52.08437 0.66959 17472 ft 331 kts 99°
2026-05-06 16:26 52.08019 0.70624 17154 ft 329 kts 101°
2026-05-06 16:26 52.07610 0.74217 16862 ft 326 kts 100°
2026-05-06 16:27 52.07195 0.77835 16575 ft 325 kts 101°
2026-05-06 16:27 52.06775 0.81451 16283 ft 325 kts 101°
2026-05-06 16:27 52.06091 0.84932 15996 ft 324 kts 114°
2026-05-06 16:27 52.05136 0.88225 15722 ft 322 kts 117°
2026-05-06 16:28 52.03953 0.91284 15404 ft 320 kts 135°
2026-05-06 16:28 52.02136 0.93288 15102 ft 316 kts 161°
2026-05-06 16:28 52.00003 0.93849 14810 ft 310 kts 187°
2026-05-06 16:28 51.97965 0.92929 14528 ft 303 kts 211°
2026-05-06 16:29 51.96370 0.90770 14287 ft 298 kts 230°
2026-05-06 16:29 51.95016 0.88300 14059 ft 297 kts 232°
2026-05-06 16:29 51.93648 0.85799 13823 ft 296 kts 230°
2026-05-06 16:29 51.92281 0.83297 13566 ft 296 kts 230°
2026-05-06 16:30 51.90900 0.80818 13300 ft 297 kts 229°
2026-05-06 16:30 51.89973 0.79189 13127 ft 297 kts 230°
2026-05-06 16:30 51.88062 0.75951 12798 ft 297 kts 229°
2026-05-06 16:30 51.86620 0.73563 12566 ft 294 kts 228°
2026-05-06 16:31 51.85198 0.71245 12292 ft 287 kts 229°
2026-05-06 16:31 51.83810 0.69007 12019 ft 286 kts 228°
2026-05-06 16:31 51.82394 0.66744 11763 ft 283 kts 227°
2026-05-06 16:31 51.81000 0.64532 11483 ft 278 kts 228°
2026-05-06 16:32 51.79616 0.62336 11199 ft 283 kts 226°
2026-05-06 16:32 51.78196 0.60059 10872 ft 293 kts 226°
2026-05-06 16:32 51.76755 0.57740 10369 ft 292 kts 227°
2026-05-06 16:32 51.75321 0.55432 9841 ft 290 kts 228°
2026-05-06 16:33 51.73891 0.53148 9257 ft 289 kts 227°
2026-05-06 16:33 51.72487 0.50892 8694 ft 288 kts 226°
2026-05-06 16:33 51.71072 0.48617 8134 ft 287 kts 225°
2026-05-06 16:34 51.68247 0.44122 7051 ft 284 kts 225°
2026-05-06 16:34 51.66840 0.41890 6538 ft 283 kts 225°
2026-05-06 16:34 51.65442 0.39677 6007 ft 278 kts 225°
2026-05-06 16:34 51.64085 0.37546 5543 ft 268 kts 225°
2026-05-06 16:35 51.62806 0.35532 5202 ft 247 kts 225°
2026-05-06 16:35 51.61616 0.33644 4831 ft 235 kts 226°
2026-05-06 16:35 51.60473 0.31836 4442 ft 227 kts 225°
2026-05-06 16:35 51.59348 0.30061 4034 ft 229 kts 227°
2026-05-06 16:36 51.58207 0.28266 3652 ft 235 kts 227°
2026-05-06 16:36 51.57034 0.26413 3317 ft 238 kts 227°
2026-05-06 16:36 51.55826 0.24576 2964 ft 240 kts 225°
2026-05-06 16:36 51.54621 0.22763 2634 ft 228 kts 225°
2026-05-06 16:37 51.53521 0.21123 2382 ft 201 kts 225°
2026-05-06 16:37 51.52569 0.19738 2248 ft 170 kts 224°
2026-05-06 16:37 51.51729 0.18518 2091 ft 155 kts 225°
2026-05-06 16:37 51.50983 0.17468 2050 ft 131 kts 224°
2026-05-06 16:38 51.50318 0.16511 1977 ft 128 kts 237°
2026-05-06 16:38 51.50159 0.15246 1960 ft 111 kts 282°
2026-05-06 16:38 51.50215 0.13984 1835 ft 121 kts 281°
2026-05-06 16:38 51.50281 0.12573 1461 ft 126 kts 281°
2026-05-06 16:39 51.50338 0.11198 1133 ft 122 kts 279°
2026-05-06 16:39 51.50391 0.09860 826 ft 123 kts 281°
2026-05-06 16:39 51.50421 0.08508 518 ft 119 kts 276°
2026-05-06 16:39 51.50465 0.07200 208 ft 116 kts 277°
2026-05-06 16:40 51.50505 0.05961 28 ft 100 kts 277°
2026-05-06 16:40 51.50538 0.05054 25 ft 56 kts 272°
2026-05-06 16:40 51.50551 0.04621 25 ft 20 kts 273°
2026-05-06 16:40 51.50531 0.04534 25 ft 6 kts 198°
2026-05-06 16:41 51.50492 0.04527 25 ft 3 kts 181°
2026-05-06 16:41 51.50491 0.04527 25 ft 0 kts 181°
2026-05-06 16:41 51.50483 0.04533 25 ft 2 kts 137°
2026-05-06 16:41 51.50477 0.04559 26 ft 2 kts 105°
2026-05-06 16:42 51.50472 0.04582 25 ft 3 kts 125°
2026-05-06 16:42 51.50455 0.04589 25 ft 3 kts 188°
2026-05-06 16:42 51.50441 0.04583 25 ft 1 kts 229°
2026-05-06 16:42 51.50442 0.04573 25 ft 1 kts 299°
2026-05-06 16:43 51.50445 0.04569 25 ft 0 kts 315°